Date String (YYYY-MM-DD hh:mm:ss) UTC,Instrument flags,Ambient pressure (hPa),Sample flow (lpm),Bypass flow (lpm),Sample temperature (°C),Ambient temperature (°C),ASC tube jacket temperature (°C),LED temperature (°C),Box temperature (°C),Sample RH (%),Span deviation,Mass concentration (μg/m³),Mass concentration (μg/m³),Mass concentration (μg/m³)
DateTimeUTC,F1_M11,P_M11,Q1_M11,Q2_M11,T1_M11,T2_M11,T3_M11,T4_M11,T5_M11,U1_M11,ZSPAN_M11,X0_M11,X2_M11,X1_M11
2022-06-25 00:00:00,,0827.2,4.99,0.00,29.1,28.0,00.0,37.8,31.1,28.8,0000.0,0010.41,0003.43,0002.09
2022-06-25 00:01:00,,0827.2,5.00,0.00,29.1,28.1,00.0,37.8,31.1,29.3,0000.0,0011.32,0003.51,0002.13
2022-06-25 00:02:00,,0827.2,5.00,0.00,29.1,28.2,00.0,37.9,31.2,28.9,0000.0,0012.62,0003.52,0002.15
2022-06-25 00:03:00,,0827.0,4.99,0.00,29.2,28.3,00.0,37.9,31.2,28.2,0000.0,0012.89,0003.52,0002.17
2022-06-25 00:04:00,,0827.1,4.99,0.00,29.2,28.4,00.0,37.9,31.3,28.6,0000.0,0013.43,0003.53,0002.18
2022-06-25 00:05:00,,0827.0,5.01,0.00,29.3,28.5,00.0,37.9,31.3,28.9,0000.0,0013.76,0003.56,0002.19
2022-06-25 00:06:00,,0827.1,5.00,0.00,29.3,28.0,00.0,37.9,31.2,29.1,0000.0,0014.75,0003.60,0002.21
2022-06-25 00:07:00,,0826.9,5.01,0.00,29.2,27.5,00.0,37.9,31.1,29.1,0000.0,0014.66,0003.62,0002.22
2022-06-25 00:08:00,,0826.9,4.99,0.00,29.2,27.4,00.0,37.9,31.0,29.0,0000.0,0014.49,0003.65,0002.24
2022-06-25 00:09:00,,0826.9,5.01,0.00,29.1,27.4,00.0,37.9,31.0,29.4,0000.0,0014.66,0003.67,0002.25
2022-06-25 00:10:00,,0826.9,4.99,0.00,29.1,27.5,00.0,37.9,31.0,29.6,0000.0,0014.60,0003.72,0002.28
2022-06-25 00:11:00,,0826.9,5.00,0.00,29.1,27.6,00.0,37.9,31.0,29.9,0000.0,0014.60,0003.74,0002.30
2022-06-25 00:12:00,,0826.8,5.01,0.00,29.1,27.8,00.0,37.9,31.1,29.6,0000.0,0014.29,0003.70,0002.29
2022-06-25 00:13:00,,0826.9,5.01,0.00,29.2,27.9,00.0,37.9,31.1,29.7,0000.0,0013.25,0003.69,0002.28
2022-06-25 00:14:00,,0826.9,5.01,0.00,29.2,28.0,00.0,37.9,31.2,28.4,0000.0,0013.13,0003.74,0002.28
2022-06-25 00:15:00,,0826.9,5.00,0.00,29.2,28.2,00.0,37.9,31.2,27.2,0000.0,0012.98,0003.72,0002.26
2022-06-25 00:16:00,,0826.9,5.00,0.00,29.3,28.3,00.0,38.0,31.3,27.2,0000.0,0013.01,0003.63,0002.22
2022-06-25 00:17:00,,0826.9,4.99,0.00,29.3,28.4,00.0,38.0,31.3,27.5,0000.0,0012.00,0003.60,0002.17
2022-06-25 00:18:00,,0826.8,5.00,0.00,29.3,28.5,00.0,38.0,31.3,27.3,0000.0,0011.18,0003.57,0002.16
2022-06-25 00:19:00,,0826.9,5.01,0.00,29.3,28.5,00.0,38.0,31.4,27.2,0000.0,0011.41,0003.49,0002.13
2022-06-25 00:20:00,,0826.9,5.00,0.00,29.4,28.3,00.0,38.0,31.3,27.4,0000.0,0011.47,0003.48,0002.10
2022-06-25 00:21:00,,0826.9,4.99,0.00,29.3,27.7,00.0,38.0,31.2,28.1,0000.0,0011.19,0003.38,0002.06
2022-06-25 00:22:00,,0826.9,5.00,0.00,29.3,27.4,00.0,38.0,31.1,28.7,0000.0,0010.73,0003.35,0002.03
2022-06-25 00:23:00,,0827.0,5.00,0.00,29.2,27.4,00.0,38.0,31.0,28.8,0000.0,0010.02,0003.32,0002.01
2022-06-25 00:24:00,,0827.1,5.00,0.00,29.2,27.5,00.0,38.0,31.1,28.4,0000.0,0009.89,0003.26,0001.98
2022-06-25 00:25:00,,0827.0,4.99,0.00,29.2,27.6,00.0,38.0,31.1,28.2,0000.0,0009.57,0003.24,0001.96
2022-06-25 00:26:00,,0827.3,5.00,0.00,29.2,27.8,00.0,38.0,31.1,28.5,0000.0,0009.05,0003.28,0001.96
2022-06-25 00:27:00,,0827.2,5.01,0.00,29.2,27.9,00.0,38.0,31.2,28.6,0000.0,0008.69,0003.35,0001.98
2022-06-25 00:28:00,,0827.1,5.00,0.00,29.3,28.0,00.0,38.0,31.2,28.8,0000.0,0008.76,0003.35,0002.02
2022-06-25 00:29:00,,0827.1,5.00,0.00,29.3,28.2,00.0,38.0,31.3,28.6,0000.0,0008.97,0003.38,0002.02
2022-06-25 00:30:00,,0827.1,4.99,0.00,29.3,28.3,00.0,38.1,31.3,28.4,0000.0,0008.33,0003.39,0002.04
2022-06-25 00:31:00,,0827.1,5.00,0.00,29.3,28.4,00.0,38.1,31.4,28.5,0000.0,0009.20,0003.39,0002.05
2022-06-25 00:32:00,,0827.2,4.99,0.00,29.4,28.5,00.0,38.1,31.4,28.6,0000.0,0009.74,0003.44,0002.08
2022-06-25 00:33:00,,0827.5,5.00,0.00,29.4,28.6,00.0,38.1,31.4,28.9,0000.0,0010.32,0003.48,0002.08
2022-06-25 00:34:00,,0827.3,5.00,0.00,29.4,28.3,00.0,38.1,31.4,28.8,0000.0,0010.37,0003.50,0002.09
2022-06-25 00:35:00,,0827.1,5.01,0.00,29.4,27.7,00.0,38.1,31.2,28.5,0000.0,0010.18,0003.50,0002.11
2022-06-25 00:36:00,,0827.2,5.01,0.00,29.3,27.4,00.0,38.0,31.1,28.8,0000.0,0010.28,0003.48,0002.14
2022-06-25 00:37:00,,0827.2,5.00,0.00,29.3,27.4,00.0,38.0,31.1,29.5,0000.0,0010.56,0003.46,0002.16
2022-06-25 00:38:00,,0827.1,5.00,0.00,29.3,27.5,00.0,38.0,31.1,29.3,0000.0,0011.22,0003.45,0002.17
2022-06-25 00:39:00,,0827.1,5.00,0.00,29.3,27.6,00.0,38.0,31.1,29.3,0000.0,0011.60,0003.46,0002.19
2022-06-25 00:40:00,,0827.1,4.99,0.00,29.3,27.8,00.0,38.1,31.2,29.3,0000.0,0011.87,0003.47,0002.22
2022-06-25 00:41:00,,0827.2,5.00,0.00,29.3,27.9,00.0,38.1,31.2,29.3,0000.0,0012.11,0003.52,0002.24
2022-06-25 00:42:00,,0827.1,5.00,0.00,29.3,28.1,00.0,38.1,31.2,29.4,0000.0,0011.43,0003.57,0002.28
2022-06-25 00:43:00,,0827.1,4.99,0.00,29.3,28.2,00.0,38.1,31.3,29.5,0000.0,0011.03,0003.59,0002.31
2022-06-25 00:44:00,,0827.1,5.00,0.00,29.4,28.3,00.0,38.1,31.3,29.8,0000.0,0011.28,0003.59,0002.35
2022-06-25 00:45:00,,0827.1,4.99,0.00,29.4,28.4,00.0,38.1,31.4,29.6,0000.0,0011.31,0003.62,0002.39
2022-06-25 00:46:00,,0826.9,4.99,0.00,29.4,28.3,00.0,38.1,31.4,29.8,0000.0,0011.33,0003.68,0002.42
2022-06-25 00:47:00,,0826.9,5.02,0.00,29.4,27.6,00.0,38.1,31.2,30.0,0000.0,0011.24,0003.70,0002.44
2022-06-25 00:48:00,,0826.9,4.98,0.00,29.3,26.9,00.0,38.0,31.0,30.5,0000.0,0010.98,0003.69,0002.47
2022-06-25 00:49:00,,0827.0,4.99,0.00,29.2,26.8,00.0,38.0,30.9,30.4,0000.0,0010.23,0003.71,0002.50
2022-06-25 00:50:00,,0826.9,5.00,0.00,29.1,26.8,00.0,38.0,30.8,31.0,0000.0,0010.41,0003.70,0002.51
2022-06-25 00:51:00,,0827.0,5.00,0.00,29.1,27.0,00.0,38.0,30.8,31.4,0000.0,0010.02,0003.70,0002.53
2022-06-25 00:52:00,,0826.9,5.00,0.00,29.1,27.1,00.0,37.9,30.9,31.3,0000.0,0009.88,0003.67,0002.55
2022-06-25 00:53:00,,0827.0,5.00,0.00,29.1,27.3,00.0,37.9,30.9,31.2,0000.0,0009.74,0003.69,0002.58
2022-06-25 00:54:00,,0827.1,5.00,0.00,29.1,27.5,00.0,37.9,31.0,31.0,0000.0,0009.57,0003.71,0002.60
2022-06-25 00:55:00,,0827.0,5.00,0.00,29.1,27.7,00.0,37.9,31.0,31.2,0000.0,0008.97,0003.72,0002.62
2022-06-25 00:56:00,,0827.0,4.98,0.00,29.1,27.9,00.0,37.9,31.1,31.1,0000.0,0008.71,0003.75,0002.63
2022-06-25 00:57:00,,0827.0,5.00,0.00,29.2,28.0,00.0,38.0,31.1,30.8,0000.0,0008.95,0003.77,0002.65
2022-06-25 00:58:00,,0827.0,5.00,0.00,29.2,28.1,00.0,38.0,31.2,31.1,0000.0,0009.41,0003.80,0002.68
2022-06-25 00:59:00,,0827.0,4.99,0.00,29.2,28.2,00.0,38.0,31.2,31.4,0000.0,0009.62,0003.87,0002.71
